CAPE
2103 2119 1928 1605 1230 1137 963 907 699 607 601 495 144 35 3 19 310 511 700 568 401 418
2819 2444 2118 1930 1591 1319 984 801 708 588 391 242 157 19 6 9 128 424 523 769 610 428
3124 2952 2562 2247 1917 1611 1315 1158 886 741 587 445 344 220 44 96 601 611 691 880 796 661
3004 2730 2536 2203 2028 1780 1471 1378 1219 1103 979 774 526 313 332 452 733 707 839 855 627 704
2624 2726 2554 2341 2044 1699 1705 1642 1471 1267 1068 717 757 920 701 826 903 936 801 412 584 531
2305 2239 2163 2025 2010 1858 1919 1692 1463 1273 1133 1198 1147 1157 1175 1083 1131 1137 943 716 592 617
2377 2193 2075 2072 2146 1913 1652 1613 1487 1386 1308 1388 1421 1323 1264 1295 1085 888 655 441 378 408
2316 2053 1960 1951 1887 1775 1661 1510 1391 1660 1602 1620 1598 1386 1586 1462 1079 772 588 142 216 306
2238 2142 1908 1969 1798 1648 1662 1582 1856 1964 1635 1651 1728 1758 1629 1292 939 786 226 87 0 50
2399 2351 2282 2124 1861 1826 1926 1856 2059 1808 2005 2046 1791 1565 1241 1313 1051 697 355 133 24 15
2456 2507 2635 2313 2061 2254 2109 2086 2144 1893 2040 1870 1750 1601 1232 1219 982 816 502 294 263 8
2420 2242 2672 2755 2533 2506 2510 2298 1978 2014 2067 2056 1747 1407 1056 977 937 935 699 484 478 359
2820 2553 2777 2557 2550 2405 2307 2293 2128 1977 1798 1716 1684 1321 1233 778 737 784 1273 1075 808 650
2856 2627 2729 2719 2662 2601 2122 1882 1643 1343 1090 1225 1389 1143 884 820 695 935 1142 1229 1263 924
CIN
-60 -21 -13 -30 -23 -6 -22 -82 -97 -93 -65 -51 -61 -90 -100 -73 -31 -9 -11 -16 -47 -31
-23 -32 -25 -3 -2 -16 -15 -59 -56 -79 -71 -58 -55 -25 -76 -51 -39 -8 -8 -2 -27 -28
-11 -24 -22 -13 -13 -11 -22 -29 -36 -30 -27 -45 -37 -44 -67 -28 -2 -2 -7 -6 -8 -18
-12 -12 -20 -10 -12 -14 -17 -29 -9 -31 -32 -23 -25 -44 -26 -19 -1 -3 -4 -7 -13 -33
-30 -20 -24 -14 -11 -12 -21 -13 -22 -26 -22 -37 -28 -5 -13 -2 -11 -6 -5 -43 -26 -25
-88 -73 -60 -50 -50 -35 -19 -18 -33 -34 -41 -21 -14 -4 -1 -4 -4 -2 -7 -10 -17 -21
-109 -102 -83 -81 -53 -44 -61 -41 -33 -30 -30 -12 -6 -6 -7 -4 -5 -11 -27 -27 -40 -21
-136 -159 -115 -110 -91 -82 -90 -90 -90 -26 -14 -10 -8 -34 -6 -5 -9 -32 -51 -143 -72 -13
-138 -115 -176 -153 -160 -159 -122 -90 -45 -16 -21 -24 -18 -15 -16 -42 -57 -56 -170 -199 0 -114
-160 -177 -162 -129 -163 -140 -95 -91 -37 -52 -25 -18 -17 -12 -7 -5 -29 -52 -66 -190 -124 -249
-117 -89 -71 -92 -83 -29 -26 -34 -18 -32 -16 -22 -34 -43 -21 -27 -10 -10 -41 -61 -47 -34
-103 -101 -27 -6 -22 -18 -8 -13 -19 -13 -11 -4 -3 -31 -62 -71 -54 -56 -61 -78 -64 -38
-59 -60 -8 -8 -7 -11 -16 -17 -21 -22 -25 -13 -12 -20 -12 -46 -75 -103 -18 -24 -39 -40
-47 -39 -15 -6 -7 -15 -21 -18 -18 -17 -29 -31 -23 -30 -36 -14 -45 -71 -33 -16 -19 -30
Wind_Speed
16 7 8 9 10 10 14 13 15 15 13 15 14 nan nan nan 13 15 16 11 13 15
17 15 10 8 10 10 9 13 14 15 13 13 13 nan nan nan 5 7 9 9 12 12
16 15 14 12 11 10 9 14 13 12 14 12 12 12 nan nan 9 9 9 11 10 13
15 13 13 14 13 11 11 13 11 12 14 12 12 10 12 11 11 13 13 14 12 12
15 15 15 16 14 11 12 11 12 14 13 13 12 11 11 12 8 12 14 14 16 16
13 15 17 14 16 12 11 11 12 13 13 13 13 12 11 13 10 9 9 10 13 15
20 14 14 17 14 14 13 13 12 12 12 12 12 12 11 13 13 12 14 14 13 13
18 19 14 14 14 13 13 13 13 13 13 12 11 10 13 12 13 16 17 15 13 18
22 19 17 17 17 15 17 16 16 18 16 14 12 12 14 15 16 18 16 nan nan nan
24 23 22 21 17 13 12 13 16 15 15 16 16 11 15 21 18 18 16 18 nan nan
23 23 24 25 21 17 16 14 13 10 12 13 15 17 19 26 24 21 20 20 19 nan
29 27 24 26 28 26 24 23 21 21 17 15 16 18 22 24 21 21 21 22 22 21
33 33 30 32 32 32 34 32 29 26 21 18 19 17 16 19 19 19 19 18 18 21
36 38 36 33 35 40 41 41 38 32 25 23 23 22 17 18 21 22 21 19 18 16
Wind_Direction
10 319 307 312 295 292 295 295 293 313 306 292 294 nan nan nan 274 275 257 234 256 273
346 359 327 327 312 297 298 298 315 316 313 311 310 nan nan nan 292 280 256 250 266 270
332 343 332 326 315 312 304 305 302 332 341 332 316 308 nan nan 286 272 263 257 261 266
331 337 331 333 327 316 300 306 315 313 318 326 331 321 315 303 282 269 266 262 261 273
335 336 342 333 330 332 325 318 319 322 323 327 334 331 328 320 311 281 275 257 257 268
346 346 348 336 334 329 320 322 321 320 326 331 339 335 335 341 342 320 291 263 259 260
360 346 337 336 324 333 331 324 324 329 324 336 336 341 342 336 331 333 311 282 262 259
351 356 341 338 333 330 336 344 344 336 337 331 331 330 327 327 322 313 304 300 274 269
344 350 348 349 348 342 338 341 338 332 329 333 330 337 335 311 301 296 296 nan nan nan
328 339 342 338 332 329 330 322 322 327 325 321 312 312 316 318 293 291 301 298 nan nan
314 320 318 320 320 317 301 301 301 307 313 314 312 324 315 315 305 304 306 308 309 nan
307 309 306 304 306 302 300 299 295 289 291 291 289 311 306 301 298 302 304 306 307 309
305 304 302 300 300 296 293 291 287 280 277 279 282 283 279 282 275 283 284 292 299 317
299 299 302 300 294 294 284 270 264 258 255 251 266 270 282 286 270 275 279 285 278 284